| time (UTC) | temp F | wind direction | speed knots | gust knots | rain 1hr in | rain 24hr in | rain mn in | humidity % | barometer mb |
| 20260504100305 | 55 | 13 | 4.3 | 6.1 | 0.00 | 0.00 | 0.00 | 86 | 1013.0 |
| 20260504100204 | 55 | 13 | 4.3 | 6.1 | 0.00 | 0.00 | 0.00 | 86 | 1013.0 |
| 20260504080301 | 57 | 15 | 3.5 | 4.3 | 0.00 | 0.00 | 0.00 | 85 | 1012.0 |
| 20260504080201 | 57 | 15 | 3.5 | 4.3 | 0.00 | 0.00 | 0.00 | 85 | 1012.0 |
| 20260504070300 | 57 | 13 | 3.5 | 4.3 | 0.00 | 0.00 | 0.00 | 89 | 1013.0 |
| 20260504070200 | 57 | 13 | 3.5 | 4.3 | 0.00 | 0.00 | 0.00 | 89 | 1013.0 |
| 20260504060158 | 58 | 14 | 3.5 | 4.3 | 0.00 | 0.00 | 0.00 | 85 | 1014.0 |
| 20260504050257 | 58 | 17 | 3.5 | 4.3 | 0.00 | 0.00 | 0.00 | 84 | 1014.0 |
| 20260504050157 | 58 | 17 | 3.5 | 4.3 | 0.00 | 0.00 | 0.00 | 84 | 1014.0 |
| 20260504044256 | 59 | 17 | 3.5 | 4.3 | 0.00 | 0.00 | 0.00 | 84 | 1015.0 |
| 20260504044156 | 59 | 17 | 3.5 | 4.3 | 0.00 | 0.00 | 0.00 | 84 | 1015.0 |
| 20260504042256 | 60 | 17 | 3.5 | 5.2 | 0.00 | 0.00 | 0.00 | 88 | 1014.0 |
| 20260504042156 | 60 | 17 | 3.5 | 5.2 | 0.00 | 0.00 | 0.00 | 88 | 1014.0 |
| 20260504040255 | 57 | 18 | 2.6 | 4.3 | 0.00 | 0.00 | 0.00 | 86 | 1014.0 |
| 20260504040155 | 57 | 18 | 2.6 | 4.3 | 0.00 | 0.00 | 0.00 | 86 | 1014.0 |
| 20260504034255 | 58 | 18 | 2.6 | 4.3 | 0.00 | 0.00 | 0.00 | 86 | 1014.0 |
| 20260504034155 | 58 | 18 | 2.6 | 4.3 | 0.00 | 0.00 | 0.00 | 86 | 1014.0 |
| 20260504032255 | 59 | 18 | 2.6 | 4.3 | 0.00 | 0.00 | 0.00 | 86 | 1013.0 |
| 20260504032154 | 59 | 18 | 2.6 | 4.3 | 0.00 | 0.00 | 0.00 | 86 | 1013.0 |
| 20260504030254 | 60 | 18 | 2.6 | 4.3 | 0.00 | 0.00 | 0.00 | 91 | 1014.0 |
| 20260504030154 | 60 | 18 | 2.6 | 4.3 | 0.00 | 0.00 | 0.00 | 91 | 1014.0 |
| 20260504024254 | 58 | 42 | 0.9 | 2.6 | 0.00 | 0.00 | 0.00 | 79 | 1014.0 |
| 20260504024153 | 58 | 42 | 0.9 | 2.6 | 0.00 | 0.00 | 0.00 | 79 | 1014.0 |
| 20260504022253 | 59 | 42 | 0.9 | 2.6 | 0.00 | 0.00 | 0.00 | 79 | 1012.0 |
| 20260504022153 | 59 | 42 | 0.9 | 2.6 | 0.00 | 0.00 | 0.00 | 79 | 1012.0 |
| 20260504020252 | 60 | 42 | 0.9 | 2.6 | 0.00 | 0.00 | 0.00 | 79 | 1013.0 |
| 20260504020152 | 60 | 42 | 0.9 | 2.6 | 0.00 | 0.00 | 0.00 | 79 | 1013.0 |
| 20260504014252 | 61 | 42 | 0.9 | 2.6 | 0.00 | 0.00 | 0.00 | 80 | 1013.0 |
| 20260504014152 | 61 | 42 | 0.9 | 2.6 | 0.00 | 0.00 | 0.00 | 80 | 1013.0 |
| 20260504012252 | 62 | 42 | 0.9 | 2.6 | 0.00 | 0.00 | 0.00 | 81 | 1012.0 |
| 20260504012151 | 62 | 42 | 0.9 | 2.6 | 0.00 | 0.00 | 0.00 | 81 | 1012.0 |
| 20260504010251 | 59 | 42 | 0.9 | 2.6 | 0.00 | 0.00 | 0.00 | 77 | 1013.0 |
| 20260504010151 | 59 | 42 | 0.9 | 2.6 | 0.00 | 0.00 | 0.00 | 77 | 1013.0 |
| 20260504004251 | 60 | 42 | 0.9 | 2.6 | 0.00 | 0.00 | 0.00 | 77 | 1013.0 |
| 20260504004150 | 60 | 42 | 0.9 | 2.6 | 0.00 | 0.00 | 0.00 | 77 | 1013.0 |
| 20260504002250 | 59 | 102 | 0.9 | 3.5 | 0.00 | 0.00 | 0.00 | 82 | 1011.0 |
| 20260504002150 | 59 | 102 | 0.9 | 3.5 | 0.00 | 0.00 | 0.00 | 82 | 1011.0 |
| 20260504000250 | 60 | 102 | 0.9 | 3.5 | 0.00 | 0.00 | 0.00 | 82 | 1012.0 |
| 20260504000150 | 60 | 102 | 0.9 | 3.5 | 0.00 | 0.00 | 0.00 | 82 | 1012.0 |
| 20260503234249 | 61 | 102 | 0.9 | 3.5 | 0.00 | 0.00 | 0.00 | 82 | 1012.0 |
| 20260503234149 | 61 | 102 | 0.9 | 3.5 | 0.00 | 0.00 | 0.00 | 82 | 1012.0 |
| 20260503232249 | 62 | 102 | 0.9 | 3.5 | 0.01 | 0.00 | 0.00 | 82 | 1010.0 |
| 20260503232149 | 62 | 102 | 0.9 | 3.5 | 0.01 | 0.00 | 0.00 | 82 | 1010.0 |
| 20260503230248 | 63 | 102 | 0.9 | 3.5 | 0.02 | 0.00 | 0.00 | 82 | 1011.0 |
| 20260503230148 | 63 | 102 | 0.9 | 3.5 | 0.02 | 0.00 | 0.00 | 82 | 1011.0 |
| 20260503224248 | 64 | 102 | 0.9 | 3.5 | 0.04 | 0.00 | 0.00 | 82 | 1011.0 |
| 20260503224148 | 64 | 102 | 0.9 | 3.5 | 0.04 | 0.00 | 0.00 | 82 | 1011.0 |
| 20260503222247 | 65 | 102 | 0.9 | 3.5 | 0.05 | 0.00 | 0.00 | 82 | 1010.0 |
| 20260503222147 | 65 | 102 | 0.9 | 3.5 | 0.05 | 0.00 | 0.00 | 82 | 1010.0 |
| 20260503220247 | 66 | 102 | 0.9 | 3.5 | 0.04 | 0.00 | 0.00 | 82 | 1011.0 |
| 20260503220147 | 66 | 102 | 0.9 | 3.5 | 0.04 | 0.00 | 0.00 | 82 | 1011.0 |
| 20260503214247 | 62 | 102 | 0.9 | 3.5 | 0.04 | 0.00 | 0.00 | 73 | 1011.0 |
| 20260503214146 | 62 | 102 | 0.9 | 3.5 | 0.04 | 0.00 | 0.00 | 73 | 1011.0 |
| 20260503212246 | 64 | 146 | 0.9 | 2.6 | 0.02 | 0.00 | 0.00 | 73 | 1010.0 |
| 20260503212146 | 64 | 146 | 0.9 | 2.6 | 0.02 | 0.00 | 0.00 | 73 | 1010.0 |
| 20260503210245 | 64 | 176 | 0.9 | 2.6 | 0.00 | 0.00 | 0.00 | 74 | 1011.0 |
| 20260503210145 | 64 | 176 | 0.9 | 2.6 | 0.00 | 0.00 | 0.00 | 74 | 1011.0 |
| 20260503204245 | 65 | 176 | 0.9 | 2.6 | 0.00 | 0.00 | 0.00 | 74 | 1011.0 |
| 20260503204145 | 65 | 176 | 0.9 | 2.6 | 0.00 | 0.00 | 0.00 | 74 | 1011.0 |
| 20260503202244 | 66 | 176 | 0.9 | 2.6 | 0.01 | 0.00 | 0.00 | 74 | 1010.0 |
| 20260503202144 | 66 | 176 | 0.9 | 2.6 | 0.01 | 0.00 | 0.00 | 74 | 1010.0 |
| 20260503200244 | 65 | 176 | 0.9 | 2.6 | 0.00 | 0.00 | 0.00 | 78 | 1012.0 |
| 20260503200144 | 65 | 176 | 0.9 | 2.6 | 0.00 | 0.00 | 0.00 | 78 | 1012.0 |
| 20260503194143 | 66 | 176 | 0.9 | 2.6 | 0.01 | 0.00 | 0.00 | 78 | 1012.0 |
| 20260503192243 | 66 | 198 | 1.7 | 3.5 | 0.00 | 0.00 | 0.00 | 75 | 1012.0 |
| 20260503192143 | 66 | 198 | 1.7 | 3.5 | 0.00 | 0.00 | 0.00 | 75 | 1012.0 |
| 20260503190242 | 66 | 198 | 1.7 | 3.5 | 0.00 | 0.00 | 0.00 | 76 | 1012.0 |
| 20260503190142 | 66 | 198 | 1.7 | 3.5 | 0.00 | 0.00 | 0.00 | 76 | 1012.0 |
| 20260503184242 | 66 | 198 | 1.7 | 3.5 | 0.00 | 0.00 | 0.00 | 76 | 1012.0 |
| 20260503184142 | 66 | 198 | 1.7 | 3.5 | 0.00 | 0.00 | 0.00 | 76 | 1012.0 |
| 20260503182242 | 64 | 118 | 0.0 | 2.6 | 0.00 | 0.00 | 0.00 | 79 | 1013.0 |
| 20260503182141 | 64 | 118 | 0.0 | 2.6 | 0.00 | 0.00 | 0.00 | 79 | 1013.0 |
| 20260503180241 | 63 | 118 | 0.0 | 2.6 | 0.00 | 0.00 | 0.00 | 81 | 1013.0 |
| 20260503180141 | 63 | 118 | 0.0 | 2.6 | 0.00 | 0.00 | 0.00 | 81 | 1013.0 |
| 20260503174240 | 63 | 118 | 0.0 | 2.6 | 0.00 | 0.00 | 0.00 | 81 | 1013.0 |
| 20260503174140 | 63 | 118 | 0.0 | 2.6 | 0.00 | 0.00 | 0.00 | 81 | 1013.0 |
| 20260503172240 | 63 | 163 | 1.7 | 3.5 | 0.00 | 0.00 | 0.00 | 75 | 1013.0 |
| 20260503172140 | 63 | 163 | 1.7 | 3.5 | 0.00 | 0.00 | 0.00 | 75 | 1013.0 |
| 20260503170239 | 63 | 163 | 1.7 | 3.5 | 0.00 | 0.00 | 0.00 | 77 | 1014.0 |
| 20260503170139 | 63 | 163 | 1.7 | 3.5 | 0.00 | 0.00 | 0.00 | 77 | 1014.0 |
| 20260503160137 | 62 | 160 | 1.7 | 4.3 | 0.00 | 0.00 | 0.00 | 67 | 1014.0 |
| 20260503150236 | 62 | 169 | 0.9 | 2.6 | 0.00 | 0.00 | 0.00 | 71 | 1014.0 |
| 20260503150136 | 62 | 169 | 0.9 | 2.6 | 0.00 | 0.00 | 0.00 | 71 | 1014.0 |
| 20260503140235 | 61 | 22 | 0.9 | 2.6 | 0.00 | 0.00 | 0.00 | 78 | 1014.0 |
| 20260503140135 | 61 | 22 | 0.9 | 2.6 | 0.00 | 0.00 | 0.00 | 78 | 1014.0 |
| 20260503130233 | 59 | 16 | 2.6 | 5.2 | 0.00 | 0.00 | 0.00 | 88 | 1014.0 |
| 20260503130133 | 59 | 16 | 2.6 | 5.2 | 0.00 | 0.00 | 0.00 | 88 | 1014.0 |
| 20260503120132 | 57 | 19 | 4.3 | 4.3 | 0.00 | 0.00 | 0.00 | 89 | 1013.0 |
| 20260503110231 | 57 | 14 | 3.5 | 3.5 | 0.00 | 0.00 | 0.00 | 86 | 1013.0 |
| 20260503110130 | 57 | 14 | 3.5 | 3.5 | 0.00 | 0.00 | 0.00 | 86 | 1013.0 |